Climatologie pour Saint-Brevin les Pins
Jour • Résumé pour avril 11, 2017 Système :  Métrique    Anglais   Mixte
« - 1 jour
+ 1 jour »
Jour Semaine Mois Année Personnalisé
  Maximum : Minimum : Moyenne :
Température sous abri : -17.8 °C -15.1 °C -11.7 °C
Point de rosée : -17.8 °C -15.4 °C -14.2 °C
Humidité : Humidity % 47 % 75 %
Vitesse du vent : 0 km/h 0 km/h 7.4 km/h
Rafale : 0 km/h - -
Direction :- - ENE
Pression : 0 hPa 34726.8 hPa -
Précipitations : 0 mm    
Historical Graphs
 
 
Tableau de données pour avril 11, 2017
Heure Tempé Pt rosée Pression Vent Vitesse Rafale Humidité Taux pluie (/hr) Soleil
-17.8 °C -17.8 °C 0 hPa Calm     Humidity % 0 mm SolarRadiationWatts/m^2 W/m2 Conditions
00:00 -12.7 °C -14.2 °C 34784.4 hPa NNE 7.7 km/h 28.5 km/h 83 % 0 mm 0 W/m2
00:10 -12.8 °C -14.3 °C 34797.9 hPa NNE 15.6 km/h 20.8 km/h 83 % 0 mm 0 W/m2
00:15 -12.9 °C -14.3 °C 34797.9 hPa NE 5.1 km/h 20.8 km/h 84 % 0 mm 0 W/m2
00:20 -13 °C -14.4 °C 34797.9 hPa ENE 12.9 km/h 20.8 km/h 84 % 0 mm 0 W/m2
00:25 -13.1 °C -14.6 °C 34797.9 hPa NNE 18.2 km/h 20.8 km/h 84 % 0 mm 0 W/m2
00:30 -13.1 °C -14.4 °C 34797.9 hPa North 12.9 km/h 23.3 km/h 85 % 0 mm 0 W/m2
00:40 -13.2 °C -14.4 °C 34784.4 hPa North 18.2 km/h 31.1 km/h 85 % 0 mm 0 W/m2
00:45 -13.1 °C -14.4 °C 34784.4 hPa NE 5.1 km/h 23.3 km/h 85 % 0 mm 0 W/m2
00:50 -13.1 °C -14.6 °C 34797.9 hPa NNE 5.1 km/h 23.3 km/h 84 % 0 mm 0 W/m2
00:55 -13.2 °C -14.6 °C 34797.9 hPa North 2.6 km/h 23.3 km/h 85 % 0 mm 0 W/m2
01:00 -13.4 °C -14.7 °C 34797.9 hPa North 12.9 km/h 23.3 km/h 85 % 0 mm 0 W/m2
01:05 -13.4 °C -14.6 °C 34797.9 hPa NE 2.6 km/h 20.8 km/h 86 % 0 mm 0 W/m2
01:10 -13.4 °C -14.7 °C 34784.4 hPa Calm   20.8 km/h 86 % 0 mm 0 W/m2
01:15 -13.5 °C -14.7 °C 34784.4 hPa North 2.6 km/h 18.2 km/h 87 % 0 mm 0 W/m2
01:25 -13.7 °C -14.7 °C 34784.4 hPa Calm   15.6 km/h 88 % 0 mm 0 W/m2
01:30 -13.7 °C -14.7 °C 34784.4 hPa NE 12.9 km/h 15.6 km/h 88 % 0 mm 0 W/m2
01:35 -13.7 °C -14.8 °C 34784.4 hPa North 7.7 km/h 15.6 km/h 88 % 0 mm 0 W/m2
01:40 -13.8 °C -14.9 °C 34784.4 hPa NNE 7.7 km/h 15.6 km/h 88 % 0 mm 0 W/m2
01:45 -13.9 °C -14.8 °C 34784.4 hPa Calm   15.6 km/h 89 % 0 mm 0 W/m2
01:50 -14 °C -14.8 °C 34784.4 hPa NNE 5.1 km/h 12.9 km/h 90 % 0 mm 0 W/m2
01:55 -14 °C -14.8 °C 34797.9 hPa NNE 10.3 km/h 12.9 km/h 90 % 0 mm 0 W/m2
02:00 -14 °C -14.8 °C 34784.4 hPa North 10.3 km/h 15.6 km/h 90 % 0 mm 0 W/m2
02:10 -14 °C -14.8 °C 34784.4 hPa NE 10.3 km/h 18.2 km/h 90 % 0 mm 0 W/m2
02:15 -13.9 °C -14.8 °C 34784.4 hPa NE 5.1 km/h 18.2 km/h 90 % 0 mm 0 W/m2
02:20 -13.9 °C -14.8 °C 34784.4 hPa ENE 2.6 km/h 18.2 km/h 90 % 0 mm 0 W/m2
02:25 -14 °C -14.8 °C 34784.4 hPa NNE 7.7 km/h 15.6 km/h 90 % 0 mm 0 W/m2
02:30 -14.1 °C -14.9 °C 34784.4 hPa NE 7.7 km/h 12.9 km/h 90 % 0 mm 0 W/m2
02:35 -14.1 °C -14.8 °C 34784.4 hPa NNE 5.1 km/h 12.9 km/h 91 % 0 mm 0 W/m2
02:40 -14.1 °C -14.9 °C 34784.4 hPa NNE 7.7 km/h 15.6 km/h 91 % 0 mm 0 W/m2
02:45 -14.2 °C -14.9 °C 34784.4 hPa Calm   15.6 km/h 91 % 0 mm 0 W/m2
03:00 -14.2 °C -14.8 °C 34784.4 hPa North 2.6 km/h 15.6 km/h 92 % 0 mm 0 W/m2
03:05 -14.2 °C -14.9 °C 34784.4 hPa Calm   15.6 km/h 91 % 0 mm 0 W/m2
03:10 -14.2 °C -15 °C 34784.4 hPa NNE 10.3 km/h 15.6 km/h 91 % 0 mm 0 W/m2
03:15 -14.3 °C -15 °C 34784.4 hPa North 7.7 km/h 15.6 km/h 92 % 0 mm 0 W/m2
03:20 -14.3 °C -15 °C 34784.4 hPa North 7.7 km/h 12.9 km/h 92 % 0 mm 0 W/m2
03:25 -14.3 °C -14.9 °C 34784.4 hPa NNE 7.7 km/h 12.9 km/h 92 % 0 mm 0 W/m2
03:30 -14.3 °C -14.9 °C 34784.4 hPa NNE 5.1 km/h 10.3 km/h 92 % 0 mm 0 W/m2
03:40 -14.4 °C -14.9 °C 34784.4 hPa NNE 2.6 km/h 15.6 km/h 93 % 0 mm 0 W/m2
03:45 -14.3 °C -14.9 °C 34784.4 hPa NNE 5.1 km/h 15.6 km/h 93 % 0 mm 0 W/m2
03:50 -14.3 °C -14.9 °C 34774.2 hPa NE 5.1 km/h 23.3 km/h 93 % 0 mm 0 W/m2
03:55 -14.3 °C -14.9 °C 34774.2 hPa NNW 12.9 km/h 23.3 km/h 93 % 0 mm 0 W/m2
04:00 -14.3 °C -14.9 °C 34774.2 hPa North 10.3 km/h 18.2 km/h 93 % 0 mm 0 W/m2
04:05 -14.3 °C -14.8 °C 34784.4 hPa NE 7.7 km/h 18.2 km/h 93 % 0 mm 0 W/m2
04:10 -14.3 °C -14.9 °C 34784.4 hPa NNE 2.6 km/h 15.6 km/h 93 % 0 mm 0 W/m2
04:15 -14.3 °C -14.9 °C 34784.4 hPa NE 7.7 km/h 15.6 km/h 93 % 0 mm 0 W/m2
04:25 -14.3 °C -14.9 °C 34784.4 hPa NNE 2.6 km/h 20.8 km/h 93 % 0 mm 0 W/m2
04:30 -14.3 °C -14.9 °C 34784.4 hPa NE 7.7 km/h 20.8 km/h 93 % 0 mm 0 W/m2
04:35 -14.3 °C -14.9 °C 34784.4 hPa NNE 12.9 km/h 20.8 km/h 93 % 0 mm 0 W/m2
04:40 -14.3 °C -14.9 °C 34784.4 hPa NE 12.9 km/h 20.8 km/h 93 % 0 mm 0 W/m2
04:45 -14.3 °C -14.9 °C 34784.4 hPa ENE 10.3 km/h 23.3 km/h 93 % 0 mm 0 W/m2
04:50 -14.3 °C -14.9 °C 34784.4 hPa Calm   23.3 km/h 93 % 0 mm 0 W/m2
04:55 -14.3 °C -14.8 °C 34784.4 hPa NE 5.1 km/h 23.3 km/h 94 % 0 mm 0 W/m2
05:00 -14.3 °C -14.8 °C 34784.4 hPa NNE 5.1 km/h 15.6 km/h 94 % 0 mm 0 W/m2
05:10 -14.4 °C -15 °C 34784.4 hPa North 10.3 km/h 20.8 km/h 93 % 0 mm 0 W/m2
05:15 -14.4 °C -14.9 °C 34784.4 hPa NE 5.1 km/h 20.8 km/h 94 % 0 mm 0 W/m2
05:20 -14.5 °C -14.9 °C 34774.2 hPa NE 2.6 km/h 15.6 km/h 94 % 0 mm 0 W/m2
05:25 -14.5 °C -14.9 °C 34774.2 hPa NE 10.3 km/h 18.2 km/h 94 % 0 mm 0 W/m2
05:30 -14.5 °C -14.9 °C 34774.2 hPa NE 2.6 km/h 18.2 km/h 94 % 0 mm 0 W/m2
05:35 -14.6 °C -15.1 °C 34774.2 hPa NE 2.6 km/h 12.9 km/h 94 % 0 mm 0 W/m2
05:40 -14.6 °C -15.1 °C 34774.2 hPa Calm   12.9 km/h 94 % 0 mm 0 W/m2
05:45 -14.7 °C -15.2 °C 34774.2 hPa Calm   12.9 km/h 94 % 0 mm 0 W/m2
05:55 -14.8 °C -15.3 °C 34774.2 hPa Calm   7.7 km/h 94 % 0 mm 0 W/m2
06:00 -14.8 °C -15.3 °C 34760.7 hPa Calm   7.7 km/h 95 % 0 mm 0 W/m2
06:05 -14.9 °C -15.3 °C 34760.7 hPa Calm   7.7 km/h 95 % 0 mm 0 W/m2
06:10 -14.9 °C -15.4 °C 34760.7 hPa NE 2.6 km/h 10.3 km/h 95 % 0 mm 0 W/m2
06:15 -15 °C -15.4 °C 34760.7 hPa NE 5.1 km/h 10.3 km/h 95 % 0 mm 0 W/m2
06:20 -14.9 °C -15.3 °C 34760.7 hPa Calm   7.7 km/h 95 % 0 mm 0 W/m2
06:25 -14.9 °C -15.4 °C 34760.7 hPa Calm   10.3 km/h 95 % 0 mm 0 W/m2
06:30 -15.1 °C -15.4 °C 34760.7 hPa Calm   10.3 km/h 95 % 0 mm 0 W/m2
06:35 -15.1 °C -15.4 °C 34774.2 hPa Calm   7.7 km/h 95 % 0 mm 0 W/m2
06:40 -15.1 °C -15.4 °C 34774.2 hPa NE 2.6 km/h 7.7 km/h 95 % 0 mm 0 W/m2
06:45 -15 °C -15.4 °C 34774.2 hPa Calm   7.7 km/h 95 % 0 mm 0 W/m2
06:50 -15.1 °C -15.4 °C 34774.2 hPa Calm   7.7 km/h 95 % 0 mm 0 W/m2
06:55 -15.1 °C -15.4 °C 34774.2 hPa Calm   7.7 km/h 96 % 0 mm 0 W/m2
07:00 -15.1 °C -15.3 °C 34774.2 hPa Calm   7.7 km/h 96 % 0 mm 0 W/m2
07:05 -15 °C -15.3 °C 34774.2 hPa NE 2.6 km/h 7.7 km/h 96 % 0 mm 0 W/m2
07:10 -15.1 °C -15.3 °C 34774.2 hPa Calm   7.7 km/h 96 % 0 mm 0 W/m2
07:15 -15.1 °C -15.3 °C 34774.2 hPa Calm   5.1 km/h 96 % 0 mm 0 W/m2
07:25 -15.1 °C -15.4 °C 34774.2 hPa Calm   7.7 km/h 96 % 0 mm 0 W/m2
07:30 -15 °C -15.3 °C 34774.2 hPa Calm   7.7 km/h 96 % 0 mm 0 W/m2
07:35 -15.1 °C -15.4 °C 34774.2 hPa NNE 2.6 km/h 7.7 km/h 96 % 0 mm 5 W/m2
07:40 -15.1 °C -15.3 °C 34784.4 hPa Calm   10.3 km/h 96 % 0 mm 9 W/m2
07:45 -15 °C -15.3 °C 34784.4 hPa NNE 2.6 km/h 10.3 km/h 96 % 0 mm 16 W/m2
07:50 -14.9 °C -15.3 °C 34784.4 hPa ENE 5.1 km/h 10.3 km/h 96 % 0 mm 25 W/m2
07:55 -14.8 °C -15 °C 34784.4 hPa Calm   10.3 km/h 97 % 0 mm 33 W/m2
08:00 -14.6 °C -14.9 °C 34784.4 hPa ENE 2.6 km/h 7.7 km/h 96 % 0 mm 40 W/m2
08:05 -14.5 °C -14.8 °C 34784.4 hPa Calm   10.3 km/h 96 % 0 mm 53 W/m2
08:10 -14.3 °C -14.6 °C 34784.4 hPa Calm   10.3 km/h 97 % 0 mm 58 W/m2
08:15 -14.2 °C -14.5 °C 34784.4 hPa NE 2.6 km/h 10.3 km/h 97 % 0 mm 54 W/m2
08:20 -14.2 °C -14.5 °C 34784.4 hPa NNE 2.6 km/h 12.9 km/h 96 % 0 mm 49 W/m2
08:25 -14.1 °C -14.4 °C 34784.4 hPa Calm   12.9 km/h 96 % 0 mm 62 W/m2
08:30 -14.1 °C -14.4 °C 34797.9 hPa NNE 2.6 km/h 12.9 km/h 96 % 0 mm 90 W/m2
08:35 -14 °C -14.3 °C 34797.9 hPa NNE 2.6 km/h 12.9 km/h 96 % 0 mm 46 W/m2
08:40 -14.1 °C -14.4 °C 34797.9 hPa NE 7.7 km/h 15.6 km/h 96 % 0 mm 53 W/m2
08:45 -14 °C -14.3 °C 34797.9 hPa NNE 5.1 km/h 15.6 km/h 96 % 0 mm 67 W/m2
08:55 -13.9 °C -14.2 °C 34808.1 hPa NE 15.6 km/h 18.2 km/h 96 % 0 mm 98 W/m2
09:00 -13.8 °C -14.2 °C 34808.1 hPa NE 10.3 km/h 18.2 km/h 96 % 0 mm 93 W/m2
09:05 -13.7 °C -14.1 °C 34808.1 hPa NE 7.7 km/h 18.2 km/h 96 % 0 mm 127 W/m2
09:10 -13.6 °C -14 °C 34808.1 hPa NNE 12.9 km/h 18.2 km/h 95 % 0 mm 97 W/m2
09:15 -13.6 °C -13.9 °C 34818.2 hPa NE 15.6 km/h 18.2 km/h 95 % 0 mm 114 W/m2
09:20 -13.5 °C -13.9 °C 34818.2 hPa Calm   18.2 km/h 95 % 0 mm 118 W/m2
09:25 -13.5 °C -14 °C 34818.2 hPa NNE 5.1 km/h 25.9 km/h 94 % 0 mm 142 W/m2
09:30 -13.4 °C -13.9 °C 34818.2 hPa ENE 2.6 km/h 25.9 km/h 94 % 0 mm 146 W/m2
09:40 -13.2 °C -13.8 °C 34818.2 hPa ENE 7.7 km/h 20.8 km/h 92 % 0 mm 294 W/m2
09:45 -12.9 °C -13.8 °C 34818.2 hPa ENE 18.2 km/h 25.9 km/h 90 % 0 mm 272 W/m2
09:50 -12.9 °C -13.8 °C 34818.2 hPa NE 7.7 km/h 31.1 km/h 89 % 0 mm 185 W/m2
09:55 -12.9 °C -14.1 °C 34818.2 hPa NNE 25.9 km/h 31.1 km/h 87 % 0 mm 149 W/m2
10:00 -12.8 °C -13.8 °C 34818.2 hPa ENE 10.3 km/h 31.1 km/h 88 % 0 mm 396 W/m2
10:05 -12.6 °C -13.8 °C 34818.2 hPa NNE 15.6 km/h 28.5 km/h 87 % 0 mm 244 W/m2
10:10 -12.7 °C -14.1 °C 34818.2 hPa ENE 15.6 km/h 25.9 km/h 85 % 0 mm 209 W/m2
10:15 -12.7 °C -14.1 °C 34818.2 hPa ENE 25.9 km/h 25.9 km/h 85 % 0 mm 251 W/m2
10:20 -12.7 °C -14 °C 34818.2 hPa ENE 7.7 km/h 25.9 km/h 85 % 0 mm 297 W/m2
10:25 -12.6 °C -14.1 °C 34818.2 hPa East 15.6 km/h 25.9 km/h 83 % 0 mm 292 W/m2
10:30 -12.4 °C -13.9 °C 34818.2 hPa East 15.6 km/h 25.9 km/h 83 % 0 mm 490 W/m2
10:35 -12 °C -13.6 °C 34831.8 hPa ENE 5.1 km/h 25.9 km/h 82 % 0 mm 378 W/m2
10:40 -11.8 °C -13.6 °C 34831.8 hPa East 10.3 km/h 25.9 km/h 81 % 0 mm 512 W/m2
10:45 -11.6 °C -13.6 °C 34831.8 hPa ENE 12.9 km/h 25.9 km/h 79 % 0 mm 499 W/m2
10:50 -11.5 °C -13.7 °C 34831.8 hPa NE 5.1 km/h 25.9 km/h 77 % 0 mm 497 W/m2
10:55 -11.3 °C -13.6 °C 34831.8 hPa NE 7.7 km/h 28.5 km/h 76 % 0 mm 540 W/m2
11:00 -11.2 °C -13.6 °C 34831.8 hPa ESE 15.6 km/h 28.5 km/h 75 % 0 mm 489 W/m2
11:10 -11 °C -13.4 °C 34831.8 hPa East 18.2 km/h 25.9 km/h 75 % 0 mm 587 W/m2
11:15 -10.8 °C -13.4 °C 34831.8 hPa East 7.7 km/h 25.9 km/h 73 % 0 mm 580 W/m2
11:20 -10.7 °C -13.3 °C 34831.8 hPa NE 5.1 km/h 23.3 km/h 73 % 0 mm 603 W/m2
11:25 -10.6 °C -13.8 °C 34831.8 hPa NE 12.9 km/h 28.5 km/h 68 % 0 mm 596 W/m2
11:30 -10.7 °C -13.6 °C 34831.8 hPa East 2.6 km/h 28.5 km/h 70 % 0 mm 610 W/m2
11:35 -10.4 °C -13.2 °C 34831.8 hPa ENE 20.8 km/h 23.3 km/h 72 % 0 mm 621 W/m2
11:40 -10.4 °C -13.8 °C 34831.8 hPa ENE 33.6 km/h 33.6 km/h 66 % 0 mm 598 W/m2
11:45 -10.4 °C -14 °C 34831.8 hPa ENE 10.3 km/h 36.2 km/h 65 % 0 mm 659 W/m2
11:50 -10.3 °C -13.7 °C 34831.8 hPa East 12.9 km/h 36.2 km/h 67 % 0 mm 654 W/m2
11:55 -10.2 °C -13.7 °C 34831.8 hPa SE 5.1 km/h 23.3 km/h 65 % 0 mm 689 W/m2
12:00 -10.2 °C -13.6 °C 34831.8 hPa ENE 18.2 km/h 25.9 km/h 66 % 0 mm 647 W/m2
12:05 -10.1 °C -13.8 °C 34831.8 hPa ENE 10.3 km/h 28.5 km/h 64 % 0 mm 682 W/m2
12:10 -10.1 °C -14.1 °C 34831.8 hPa East 25.9 km/h 28.5 km/h 62 % 0 mm 675 W/m2
12:15 -10.1 °C -13.8 °C 34831.8 hPa SE 18.2 km/h 28.5 km/h 64 % 0 mm 693 W/m2
12:20 -9.9 °C -13.9 °C 34831.8 hPa ENE 12.9 km/h 31.1 km/h 62 % 0 mm 693 W/m2
12:25 -9.8 °C -13.8 °C 34831.8 hPa ESE 23.3 km/h 31.1 km/h 62 % 0 mm 701 W/m2
12:30 -9.7 °C -13.7 °C 34831.8 hPa ESE 23.3 km/h 25.9 km/h 62 % 0 mm 735 W/m2
12:40 -9.6 °C -13.9 °C 34831.8 hPa ENE 12.9 km/h 36.2 km/h 59 % 0 mm 744 W/m2
12:45 -9.4 °C -13.8 °C 34831.8 hPa ENE 10.3 km/h 31.1 km/h 59 % 0 mm 754 W/m2
12:50 -9.1 °C -13.9 °C 34818.2 hPa East 7.7 km/h 28.5 km/h 56 % 0 mm 756 W/m2
12:55 -9 °C -13.6 °C 34818.2 hPa SE 18.2 km/h 28.5 km/h 58 % 0 mm 772 W/m2
13:00 -8.7 °C -13.8 °C 34818.2 hPa ENE 5.1 km/h 31.1 km/h 55 % 0 mm 754 W/m2
13:05 -9 °C -14 °C 34818.2 hPa NE 7.7 km/h 33.6 km/h 55 % 0 mm 773 W/m2
13:10 -8.7 °C -14.2 °C 34818.2 hPa ESE 18.2 km/h 33.6 km/h 52 % 0 mm 782 W/m2
13:15 -8.8 °C -14.1 °C 34818.2 hPa East 23.3 km/h 31.1 km/h 53 % 0 mm 759 W/m2
13:25 -9.1 °C -14.1 °C 34818.2 hPa SSE 7.7 km/h 38.8 km/h 55 % 0 mm 712 W/m2
13:30 -8.7 °C -13.6 °C 34808.1 hPa ENE 18.2 km/h 28.5 km/h 56 % 0 mm 745 W/m2
13:35 -8.9 °C -14.3 °C 34808.1 hPa East 20.8 km/h 36.2 km/h 53 % 0 mm 759 W/m2
13:40 -8.9 °C -13.9 °C 34808.1 hPa East 23.3 km/h 36.2 km/h 55 % 0 mm 773 W/m2
13:45 -8.6 °C -13.9 °C 34808.1 hPa East 12.9 km/h 36.2 km/h 53 % 0 mm 777 W/m2
13:50 -8.6 °C -14.1 °C 34808.1 hPa ESE 7.7 km/h 25.9 km/h 52 % 0 mm 791 W/m2
13:55 -8.3 °C -13.1 °C 34808.1 hPa East 7.7 km/h 31.1 km/h 57 % 0 mm 777 W/m2
14:00 -8.4 °C -13.9 °C 34808.1 hPa East 20.8 km/h 33.6 km/h 52 % 0 mm 770 W/m2
14:10 -8.4 °C -13.7 °C 34808.1 hPa NE 10.3 km/h 38.8 km/h 54 % 0 mm 803 W/m2
14:15 -8.6 °C -13.7 °C 34808.1 hPa East 15.6 km/h 28.5 km/h 54 % 0 mm 800 W/m2
14:20 -8.5 °C -13.8 °C 34808.1 hPa East 23.3 km/h 28.5 km/h 53 % 0 mm 788 W/m2
14:25 -8.3 °C -13.3 °C 34797.9 hPa ESE 7.7 km/h 23.3 km/h 55 % 0 mm 798 W/m2
14:30 -8.3 °C -13.8 °C 34797.9 hPa East 20.8 km/h 28.5 km/h 52 % 0 mm 791 W/m2
14:35 -8.3 °C -13.3 °C 34797.9 hPa ESE 18.2 km/h 28.5 km/h 55 % 0 mm 816 W/m2
14:40 -8.4 °C -13.7 °C 34797.9 hPa East 20.8 km/h 33.6 km/h 53 % 0 mm 786 W/m2
14:45 -8.4 °C -13.9 °C 34797.9 hPa North 10.3 km/h 33.6 km/h 52 % 0 mm 795 W/m2
14:55 -8.2 °C -14.2 °C 34797.9 hPa East 18.2 km/h 33.6 km/h 49 % 0 mm 759 W/m2
15:00 -8.4 °C -14.4 °C 34797.9 hPa SSE 18.2 km/h 33.6 km/h 49 % 0 mm 729 W/m2
15:05 -8.3 °C -13.5 °C 34797.9 hPa East 18.2 km/h 25.9 km/h 54 % 0 mm 731 W/m2
15:10 -8 °C -13.9 °C 34797.9 hPa East 12.9 km/h 25.9 km/h 50 % 0 mm 740 W/m2
15:15 -8.2 °C -14 °C 34797.9 hPa ENE 23.3 km/h 25.9 km/h 50 % 0 mm 738 W/m2
15:20 -8.1 °C -14.1 °C 34797.9 hPa East 15.6 km/h 28.5 km/h 49 % 0 mm 745 W/m2
15:25 -8.2 °C -14 °C 34784.4 hPa ESE 12.9 km/h 28.5 km/h 50 % 0 mm 744 W/m2
15:30 -8.2 °C -14.2 °C 34784.4 hPa ENE 2.6 km/h 28.5 km/h 49 % 0 mm 752 W/m2
15:40 -8.2 °C -14.1 °C 34784.4 hPa ESE 10.3 km/h 23.3 km/h 50 % 0 mm 671 W/m2
15:45 -7.9 °C -13.4 °C 34784.4 hPa NE 2.6 km/h 28.5 km/h 52 % 0 mm 682 W/m2
15:50 -7.9 °C -13.8 °C 34784.4 hPa ESE 12.9 km/h 28.5 km/h 50 % 0 mm 726 W/m2
15:55 -7.9 °C -13.6 °C 34784.4 hPa NNE 5.1 km/h 28.5 km/h 51 % 0 mm 714 W/m2
16:00 -8 °C -14.4 °C 34784.4 hPa ENE 2.6 km/h 28.5 km/h 47 % 0 mm 677 W/m2
16:05 -7.9 °C -13.4 °C 34784.4 hPa ENE 5.1 km/h 28.5 km/h 52 % 0 mm 687 W/m2
16:10 -7.9 °C -13.7 °C 34774.2 hPa NNE 7.7 km/h 23.3 km/h 51 % 0 mm 677 W/m2
16:15 -7.8 °C -13.2 °C 34774.2 hPa ENE 10.3 km/h 23.3 km/h 53 % 0 mm 675 W/m2
16:20 -8 °C -13.7 °C 34774.2 hPa ESE 10.3 km/h 20.8 km/h 51 % 0 mm 601 W/m2
16:25 -8 °C -13.9 °C 34774.2 hPa NNE 5.1 km/h 31.1 km/h 50 % 0 mm 606 W/m2
16:30 -8 °C -14 °C 34774.2 hPa NE 12.9 km/h 36.2 km/h 49 % 0 mm 598 W/m2
16:35 -8.1 °C -14.4 °C 34774.2 hPa ESE 5.1 km/h 36.2 km/h 47 % 0 mm 603 W/m2
16:40 -8 °C -13.8 °C 34774.2 hPa North 5.1 km/h 25.9 km/h 50 % 0 mm 608 W/m2
16:45 -7.9 °C -13.4 °C 34760.7 hPa NNE 7.7 km/h 23.3 km/h 52 % 0 mm 587 W/m2
16:50 -7.8 °C -14 °C 34774.2 hPa NE 7.7 km/h 23.3 km/h 48 % 0 mm 585 W/m2
16:55 -7.8 °C -13.7 °C 34760.7 hPa NNE 5.1 km/h 23.3 km/h 50 % 0 mm 566 W/m2
17:00 -8 °C -14.2 °C 34760.7 hPa ENE 7.7 km/h 23.3 km/h 48 % 0 mm 557 W/m2
17:05 -7.9 °C -13.8 °C 34760.7 hPa NE 7.7 km/h 23.3 km/h 50 % 0 mm 522 W/m2
17:10 -8.1 °C -14.3 °C 34760.7 hPa ESE 15.6 km/h 23.3 km/h 48 % 0 mm 541 W/m2
17:15 -7.9 °C -13.6 °C 34760.7 hPa NE 15.6 km/h 20.8 km/h 51 % 0 mm 520 W/m2
17:20 -8 °C -13.9 °C 34760.7 hPa Calm   20.8 km/h 50 % 0 mm 489 W/m2
17:25 -8.1 °C -13.9 °C 34760.7 hPa North 7.7 km/h 20.8 km/h 50 % 0 mm 490 W/m2
17:30 -7.9 °C -13.4 °C 34760.7 hPa ENE 5.1 km/h 20.8 km/h 52 % 0 mm 466 W/m2
17:40 -8.1 °C -13.8 °C 34750.5 hPa NNW 10.3 km/h 25.9 km/h 51 % 0 mm 427 W/m2
17:45 -8.2 °C -14 °C 34750.5 hPa NE 5.1 km/h 20.8 km/h 50 % 0 mm 345 W/m2
17:50 -8.2 °C -13.7 °C 34750.5 hPa East 15.6 km/h 25.9 km/h 52 % 0 mm 420 W/m2
17:55 -8.2 °C -13.9 °C 34750.5 hPa NE 7.7 km/h 25.9 km/h 51 % 0 mm 432 W/m2
18:00 -8.2 °C -14.1 °C 34750.5 hPa NE 10.3 km/h 18.2 km/h 50 % 0 mm 380 W/m2
18:05 -8.2 °C -14.2 °C 34750.5 hPa NE 7.7 km/h 18.2 km/h 49 % 0 mm 420 W/m2
18:10 -8.1 °C -13.9 °C 34750.5 hPa East 7.7 km/h 23.3 km/h 50 % 0 mm 378 W/m2
18:15 -8.2 °C -14.3 °C 34750.5 hPa East 5.1 km/h 25.9 km/h 48 % 0 mm 357 W/m2
18:25 -8.2 °C -14.1 °C 34750.5 hPa East 7.7 km/h 23.3 km/h 50 % 0 mm 302 W/m2
18:30 -8.2 °C -13.6 °C 34740.4 hPa ENE 10.3 km/h 23.3 km/h 53 % 0 mm 294 W/m2
18:40 -8.2 °C -13.4 °C 34740.4 hPa NE 5.1 km/h 15.6 km/h 54 % 0 mm 271 W/m2
18:45 -8.3 °C -13.7 °C 34750.5 hPa ENE 18.2 km/h 20.8 km/h 53 % 0 mm 253 W/m2
18:50 -8.4 °C -13.9 °C 34750.5 hPa NE 7.7 km/h 20.8 km/h 52 % 0 mm 137 W/m2
18:55 -8.5 °C -13.7 °C 34750.5 hPa ENE 7.7 km/h 18.2 km/h 54 % 0 mm 186 W/m2
19:00 -8.5 °C -13.7 °C 34740.4 hPa NE 10.3 km/h 20.8 km/h 54 % 0 mm 156 W/m2
19:05 -8.6 °C -13.9 °C 34750.5 hPa NNE 15.6 km/h 20.8 km/h 53 % 0 mm 192 W/m2
19:10 -8.7 °C -13.8 °C 34740.4 hPa NNE 2.6 km/h 18.2 km/h 54 % 0 mm 176 W/m2
19:15 -8.8 °C -13.5 °C 34740.4 hPa NNE 2.6 km/h 18.2 km/h 57 % 0 mm 91 W/m2
19:20 -8.8 °C -13.8 °C 34740.4 hPa North 2.6 km/h 18.2 km/h 55 % 0 mm 118 W/m2
19:25 -8.8 °C -14 °C 34740.4 hPa East 12.9 km/h 23.3 km/h 54 % 0 mm 84 W/m2
19:30 -8.8 °C -13.8 °C 34740.4 hPa NE 10.3 km/h 23.3 km/h 55 % 0 mm 79 W/m2
19:35 -8.9 °C -13.8 °C 34740.4 hPa East 7.7 km/h 18.2 km/h 56 % 0 mm 72 W/m2
19:40 -8.9 °C -13.7 °C 34740.4 hPa NE 10.3 km/h 20.8 km/h 57 % 0 mm 65 W/m2
19:45 -9 °C -13.7 °C 34740.4 hPa NE 5.1 km/h 20.8 km/h 57 % 0 mm 63 W/m2
19:50 -9.1 °C -13.6 °C 34740.4 hPa NE 10.3 km/h 18.2 km/h 59 % 0 mm 62 W/m2
19:55 -9.2 °C -13.9 °C 34740.4 hPa NNE 5.1 km/h 20.8 km/h 57 % 0 mm 56 W/m2
20:00 -9.3 °C -13.8 °C 34740.4 hPa Calm   20.8 km/h 58 % 0 mm 46 W/m2
20:10 -9.6 °C -13.7 °C 34740.4 hPa North 10.3 km/h 15.6 km/h 61 % 0 mm 39 W/m2
20:15 -9.8 °C -13.7 °C 34740.4 hPa Calm   15.6 km/h 63 % 0 mm 35 W/m2
20:20 -9.9 °C -13.7 °C 34740.4 hPa Calm   12.9 km/h 63 % 0 mm 30 W/m2
20:25 -10 °C -13.6 °C 34740.4 hPa NE 2.6 km/h 10.3 km/h 65 % 0 mm 23 W/m2
20:30 -10.2 °C -13.7 °C 34740.4 hPa NE 5.1 km/h 7.7 km/h 66 % 0 mm 19 W/m2
20:35 -10.4 °C -13.7 °C 34740.4 hPa NE 2.6 km/h 7.7 km/h 67 % 0 mm 14 W/m2
20:40 -10.6 °C -13.8 °C 34740.4 hPa Calm   7.7 km/h 68 % 0 mm 9 W/m2
20:45 -10.7 °C -13.8 °C 34740.4 hPa Calm   2.6 km/h 69 % 0 mm 5 W/m2
20:55 -10.9 °C -13.9 °C 34740.4 hPa Calm   2.6 km/h 70 % 0 mm 0 W/m2
21:00 -11.1 °C -13.8 °C 34740.4 hPa Calm   2.6 km/h 72 % 0 mm 0 W/m2
21:05 -11.3 °C -13.9 °C 34740.4 hPa Calm   2.6 km/h 73 % 0 mm 0 W/m2
21:10 -11.3 °C -13.9 °C 34740.4 hPa Calm   2.6 km/h 73 % 0 mm 0 W/m2
21:15 -11.5 °C -13.8 °C 34726.8 hPa Calm   2.6 km/h 75 % 0 mm 0 W/m2
21:20 -11.6 °C -13.9 °C 34740.4 hPa Calm   5.1 km/h 76 % 0 mm 0 W/m2
21:25 -11.7 °C -13.9 °C 34740.4 hPa Calm   5.1 km/h 76 % 0 mm 0 W/m2
21:30 -11.9 °C -13.9 °C 34740.4 hPa Calm   2.6 km/h 78 % 0 mm 0 W/m2
21:40 -12.3 °C -14 °C 34740.4 hPa Calm   7.7 km/h 81 % 0 mm 0 W/m2
21:45 -12.3 °C -14 °C 34740.4 hPa Calm   5.1 km/h 82 % 0 mm 0 W/m2
21:50 -12.1 °C -13.7 °C 34740.4 hPa Calm   5.1 km/h 83 % 0 mm 0 W/m2
21:55 -12.2 °C -13.8 °C 34740.4 hPa NW 2.6 km/h 5.1 km/h 83 % 0 mm 0 W/m2
22:00 -12.2 °C -13.7 °C 34740.4 hPa Calm   5.1 km/h 84 % 0 mm 0 W/m2
22:05 -12.2 °C -13.7 °C 34740.4 hPa Calm   5.1 km/h 84 % 0 mm 0 W/m2
22:10 -12.3 °C -13.6 °C 34740.4 hPa Calm   2.6 km/h 85 % 0 mm 0 W/m2
22:15 -12.3 °C -13.7 °C 34740.4 hPa Calm   2.6 km/h 85 % 0 mm 0 W/m2
22:25 -12.6 °C -13.7 °C 34740.4 hPa Calm   7.7 km/h 87 % 0 mm 0 W/m2
22:30 -12.6 °C -13.7 °C 34740.4 hPa Calm   2.6 km/h 87 % 0 mm 0 W/m2
22:35 -12.6 °C -13.7 °C 34740.4 hPa NW 2.6 km/h 5.1 km/h 87 % 0 mm 0 W/m2
22:40 -12.6 °C -13.8 °C 34740.4 hPa Calm   5.1 km/h 87 % 0 mm 0 W/m2
22:50 -12.8 °C -13.8 °C 34740.4 hPa Calm   7.7 km/h 88 % 0 mm 0 W/m2
22:55 -12.8 °C -13.8 °C 34740.4 hPa Calm   7.7 km/h 88 % 0 mm 0 W/m2
23:00 -12.9 °C -13.8 °C 34740.4 hPa Calm   7.7 km/h 89 % 0 mm 0 W/m2
23:10 -12.8 °C -13.7 °C 34740.4 hPa Calm   7.7 km/h 90 % 0 mm 0 W/m2
23:15 -12.7 °C -13.6 °C 34740.4 hPa Calm   10.3 km/h 90 % 0 mm 0 W/m2
23:20 -12.7 °C -13.7 °C 34740.4 hPa North 12.9 km/h 12.9 km/h 89 % 0 mm 0 W/m2
23:25 -12.8 °C -13.8 °C 34740.4 hPa WNW 5.1 km/h 18.2 km/h 89 % 0 mm 0 W/m2
23:30 -12.8 °C -13.8 °C 34740.4 hPa Calm   18.2 km/h 89 % 0 mm 0 W/m2
23:35 -12.8 °C -13.7 °C 34740.4 hPa Calm   7.7 km/h 89 % 0 mm 0 W/m2
23:40 -12.8 °C -13.8 °C 34740.4 hPa NNW 2.6 km/h 12.9 km/h 89 % 0 mm 0 W/m2
23:45 -12.8 °C -13.8 °C 34726.8 hPa Calm   12.9 km/h 89 % 0 mm 0 W/m2
23:50 -12.9 °C -13.7 °C 34740.4 hPa NNW 2.6 km/h 5.1 km/h 90 % 0 mm 0 W/m2
23:55 -12.9 °C -13.8 °C 34740.4 hPa North 2.6 km/h 12.9 km/h 90 % 0 mm 0 W/m2
Avec l'autorisation de Weather Underground - 1.5 mb